Location: ????
(55.5675°N, 37.6272°E)
Time: 06:34:59
(UTC+00:00)

USA 229 DEB - Pass Details

Date: 14 April 2026
Orbit: 844 x 1364 km, 63.4° (Epoch: 10 January)

Event Time Altitude Azimuth Distance (km) Brightness Sun altitude
Rises 21:50:52 0° 306° (NW) 3,850 7.0 -24.6°
Reaches altitude 10° 21:53:24 10° 308° (NW) 2,964 6.4 -24.6°
Maximum altitude 22:00:35 79° 35° (NE) 1,234 4.0 -24.4°
Drops below altitude 10° 22:08:39 10° 122° (ESE) 3,315 6.0 -24.3°
Sets 22:11:37 0° 124° (SE) 4,329 6.7 -24.2°
